• In Hungary
  • List of Countries
  • For 7 days
  • Water Temperature
  • Satellite Maps
  • Weather Map
  • News
  • Weather Widgets
  • user-avatar
    Login

    Hourly Weather Natanja

    Today, 22 October, Sunday

    Time Temperature Precipitation Wind Pressure Humidity
    00:00 +23°C° 0 mm 1 mps 755 mmHg 65%
    01:00 +23°C° 0 mm 1 mps 755 mmHg 67%
    02:00 +23°C° 0 mm 1 mps 755 mmHg 69%
    03:00 +22°C° 0 mm 1 mps 755 mmHg 70%
    04:00 +22°C° 0 mm 1 mps 755 mmHg 72%
    05:00 +22°C° 0 mm 1 mps 755 mmHg 73%
    06:00 +23°C° 0 mm 1 mps 755 mmHg 69%
    07:00 +24°C° 0 mm 1 mps 755 mmHg 65%
    08:00 +25°C° 0 mm 1 mps 755 mmHg 59%
    09:00 +26°C° 0 mm 1 mps 755 mmHg 54%
    10:00 +26°C° 0 mm 2 mps 755 mmHg 50%
    11:00 +27°C° 0 mm 2 mps 755 mmHg 45%
    12:00 +28°C° 0 mm 3 mps 755 mmHg 45%
    13:00 +28°C° 0 mm 3 mps 755 mmHg 44%
    14:00 +28°C° 0 mm 4 mps 754 mmHg 44%
    15:00 +27°C° 0 mm 3 mps 754 mmHg 47%
    16:00 +26°C° 0 mm 3 mps 754 mmHg 51%
    17:00 +26°C° 0 mm 3 mps 754 mmHg 54%
    18:00 +25°C° 0 mm 3 mps 754 mmHg 56%
    19:00 +25°C° 0 mm 2 mps 754 mmHg 58%
    20:00 +24°C° 0 mm 2 mps 754 mmHg 60%
    21:00 +24°C° 0 mm 2 mps 754 mmHg 61%
    22:00 +23°C° 0 mm 1 mps 755 mmHg 63%
    23:00 +23°C° 0 mm 1 mps 755 mmHg 64%

    Tomorrow, 23 October, Monday

    Time Temperature Precipitation Wind Pressure Humidity
    00:00 +22°C° 0 mm 1 mps 754 mmHg 66%
    01:00 +22°C° 0 mm 1 mps 754 mmHg 67%
    02:00 +22°C° 0 mm 1 mps 754 mmHg 69%
    03:00 +21°C° 0 mm 1 mps 754 mmHg 70%
    04:00 +21°C° 0 mm 1 mps 754 mmHg 71%
    05:00 +21°C° 0 mm 1 mps 754 mmHg 72%
    06:00 +22°C° 0 mm 1 mps 754 mmHg 67%
    07:00 +23°C° 0 mm 1 mps 754 mmHg 62%
    08:00 +24°C° 0 mm 1 mps 754 mmHg 57%
    09:00 +25°C° 0 mm 1 mps 754 mmHg 50%
    10:00 +26°C° 0 mm 1 mps 754 mmHg 43%
    11:00 +28°C° 0 mm 1 mps 754 mmHg 36%
    12:00 +28°C° 0 mm 2 mps 754 mmHg 36%
    13:00 +29°C° 0 mm 3 mps 753 mmHg 36%
    14:00 +29°C° 0 mm 3 mps 753 mmHg 36%
    15:00 +28°C° 0 mm 3 mps 753 mmHg 41%
    16:00 +27°C° 0 mm 3 mps 753 mmHg 47%
    17:00 +26°C° 0 mm 3 mps 753 mmHg 52%
    18:00 +25°C° 0 mm 3 mps 753 mmHg 55%
    19:00 +25°C° 0 mm 3 mps 753 mmHg 59%
    20:00 +24°C° 0 mm 2 mps 753 mmHg 62%
    21:00 +24°C° 0 mm 2 mps 753 mmHg 64%
    22:00 +24°C° 0 mm 1 mps 753 mmHg 65%
    23:00 +23°C° 0 mm 1 mps 753 mmHg 67%

    Day after tomorrow, 24 October, Tuesday

    Time Temperature Precipitation Wind Pressure Humidity
    00:00 +23°C° 0 mm 1 mps 753 mmHg 69%
    01:00 +23°C° 0 mm 1 mps 753 mmHg 70%
    02:00 +20°C° 0 mm 0 mps 753 mmHg 71%
    03:00 +20°C° 0 mm 0 mps 753 mmHg 72%
    04:00 +20°C° 0 mm 0 mps 753 mmHg 73%
    05:00 +19°C° 0 mm 0 mps 753 mmHg 75%
    06:00 +20°C° 0 mm 0 mps 753 mmHg 70%
    07:00 +21°C° 0 mm 0 mps 754 mmHg 65%
    08:00 +24°C° 0 mm 1 mps 754 mmHg 60%
    09:00 +25°C° 0 mm 1 mps 754 mmHg 55%
    10:00 +26°C° 0 mm 1 mps 754 mmHg 50%
    11:00 +27°C° 0 mm 1 mps 754 mmHg 44%
    12:00 +28°C° 0 mm 2 mps 754 mmHg 42%
    13:00 +28°C° 0 mm 2 mps 753 mmHg 40%
    14:00 +28°C° 0 mm 3 mps 753 mmHg 38%
    15:00 +28°C° 0 mm 2 mps 753 mmHg 42%
    16:00 +27°C° 0 mm 2 mps 753 mmHg 46%
    17:00 +26°C° 0 mm 2 mps 753 mmHg 49%
    18:00 +25°C° 0 mm 2 mps 754 mmHg 52%
    19:00 +25°C° 0 mm 1 mps 754 mmHg 56%
    20:00 +24°C° 0 mm 1 mps 755 mmHg 59%
    21:00 +24°C° 0 mm 1 mps 755 mmHg 61%
    22:00 +23°C° 0 mm 1 mps 755 mmHg 62%
    23:00 +23°C° 0 mm 2 mps 755 mmHg 64%

    25 October, Wednesday

    Time Temperature Precipitation Wind Pressure Humidity
    00:00 +23°C° 0 mm 2 mps 755 mmHg 63%
    01:00 +23°C° 0 mm 2 mps 755 mmHg 62%
    02:00 +21°C° 0 mm 2 mps 755 mmHg 62%
    03:00 +21°C° 0 mm 2 mps 755 mmHg 60%
    04:00 +21°C° 0 mm 2 mps 755 mmHg 58%
    05:00 +21°C° 0 mm 2 mps 755 mmHg 57%
    06:00 +23°C° 0 mm 2 mps 756 mmHg 51%
    07:00 +25°C° 0 mm 2 mps 756 mmHg 45%
    08:00 +26°C° 0 mm 2 mps 757 mmHg 39%
    09:00 +27°C° 0 mm 2 mps 757 mmHg 35%
    10:00 +28°C° 0 mm 2 mps 757 mmHg 32%
    11:00 +30°C° 0 mm 1 mps 757 mmHg 29%
    12:00 +30°C° 0 mm 2 mps 756 mmHg 28%
    13:00 +30°C° 0 mm 2 mps 756 mmHg 27%
    14:00 +30°C° 0 mm 2 mps 756 mmHg 26%
    15:00 +29°C° 0 mm 2 mps 756 mmHg 30%
    16:00 +29°C° 0 mm 2 mps 756 mmHg 33%
    17:00 +28°C° 0 mm 2 mps 756 mmHg 36%
    18:00 +27°C° 0 mm 2 mps 757 mmHg 39%
    19:00 +26°C° 0 mm 2 mps 757 mmHg 42%
    20:00 +26°C° 0 mm 2 mps 758 mmHg 45%
    21:00 +25°C° 0 mm 2 mps 758 mmHg 46%
    22:00 +25°C° 0 mm 3 mps 758 mmHg 47%
    23:00 +25°C° 0 mm 3 mps 758 mmHg 47%

    26 October, Thursday

    Time Temperature Precipitation Wind Pressure Humidity
    00:00 +24°C° 0 mm 3 mps 757 mmHg 47%
    01:00 +24°C° 0 mm 2 mps 757 mmHg 46%
    02:00 +24°C° 0 mm 2 mps 757 mmHg 45%
    03:00 +23°C° 0 mm 2 mps 757 mmHg 45%
    04:00 +23°C° 0 mm 2 mps 757 mmHg 45%
    05:00 +22°C° 0 mm 3 mps 757 mmHg 45%
    06:00 +24°C° 0 mm 3 mps 758 mmHg 41%
    07:00 +25°C° 0 mm 3 mps 758 mmHg 37%
    08:00 +27°C° 0 mm 3 mps 758 mmHg 33%
    09:00 +28°C° 0 mm 3 mps 758 mmHg 29%
    10:00 +30°C° 0 mm 3 mps 758 mmHg 26%
    11:00 +31°C° 0 mm 3 mps 757 mmHg 23%
    12:00 +33°C° 0 mm 3 mps 757 mmHg 22%
    13:00 +33°C° 0 mm 4 mps 756 mmHg 21%
    14:00 +34°C° 0 mm 4 mps 756 mmHg 20%
    15:00 +33°C° 0 mm 4 mps 756 mmHg 23%
    16:00 +30°C° 0 mm 5 mps 756 mmHg 26%
    17:00 +29°C° 0 mm 5 mps 756 mmHg 30%
    18:00 +28°C° 0 mm 6 mps 756 mmHg 34%
    19:00 +28°C° 0 mm 6 mps 756 mmHg 38%
    20:00 +27°C° 0 mm 6 mps 756 mmHg 42%
    21:00 +26°C° 0 mm 6 mps 756 mmHg 43%
    22:00 +26°C° 0 mm 6 mps 756 mmHg 44%
    23:00 +26°C° 0 mm 6 mps 756 mmHg 44%

    27 October, Friday

    Time Temperature Precipitation Wind Pressure Humidity
    00:00 +24°C° 0 mm 6 mps 756 mmHg 43%
    01:00 +24°C° 0 mm 6 mps 755 mmHg 41%
    02:00 +25°C° 0 mm 5 mps 755 mmHg 39%
    03:00 +25°C° 0 mm 5 mps 755 mmHg 36%
    04:00 +25°C° 0 mm 5 mps 755 mmHg 33%
    05:00 +23°C° 0 mm 4 mps 755 mmHg 29%
    06:00 +26°C° 0 mm 4 mps 755 mmHg 28%
    07:00 +27°C° 0 mm 5 mps 755 mmHg 26%
    08:00 +28°C° 0 mm 5 mps 755 mmHg 25%
    09:00 +30°C° 0 mm 5 mps 755 mmHg 24%
    10:00 +32°C° 0 mm 5 mps 754 mmHg 22%
    11:00 +34°C° 0 mm 5 mps 754 mmHg 21%
    12:00 +34°C° 0 mm 5 mps 754 mmHg 21%
    13:00 +34°C° 0 mm 5 mps 753 mmHg 21%
    14:00 +35°C° 0 mm 5 mps 752 mmHg 21%
    15:00 +34°C° 0 mm 5 mps 752 mmHg 25%
    16:00 +32°C° 0 mm 6 mps 752 mmHg 29%
    17:00 +30°C° 0 mm 6 mps 752 mmHg 33%
    18:00 +29°C° 0 mm 6 mps 752 mmHg 37%
    19:00 +28°C° 0 mm 5 mps 752 mmHg 40%
    20:00 +27°C° 0 mm 5 mps 752 mmHg 44%
    21:00 +27°C° 0 mm 4 mps 752 mmHg 42%
    22:00 +27°C° 0 mm 4 mps 751 mmHg 41%
    23:00 +27°C° 0 mm 3 mps 751 mmHg 39%
    Show more